Weather in Kingstown

Saint Vincent and the Grenadines     13°09′25″N   61°13′36″W
temp.,
°C
wind,
m/s
gust,
m/s
humid.,
%
clouds,
%
prec.,
mm/h
press.,
hPa
HPBL,
m
8 march, mon
mon823:00+25e698012 0.1 1015943
02:00+25e7107813 0.2 1015976
05:00+25e7107421 0.1 10151075
08:00+25e8117232 0.1 10171185
11:00+26e797213 0.0 10171147
14:00+26ene7107311 0.1 10151131
17:00+26ene797355 0.0 10141021
20:00+25ene7107630 0.1 10161071
9 march, tue
tue923:00+25ene7107915 0.2 1016997
02:00+24ene7107520 0.4 10151035
05:00+24e8107391 0.1 10141032
08:00+25e587294 0.2 10161069
11:00+26ene686828 0.2 10171154
14:00+27ene576543 0.2 10141064
17:00+26ene68724 0.0 10131006
20:00+25ene710766 0.0 10141021
10 march, wed
wed1023:00+24ene71181100 0.4 1015919
02:00+24e7107990 0.8 1014966
05:00+24e71080100 0.1 1013801
08:00+24e81177100 0.1 10151012
11:00+26e7971100 0.1 10161127
14:00+26e687063 0.1 10131054
17:00+25e6875100 0.1 1012973
20:00+24e6979100 0.1 1013831
11 march, thu
thu1123:00+24ene58808 0.1 1015804
02:00+24ene698011 0.3 1014789
05:00+24ene698144 0.1 1013796
08:00+24e697947 0.3 1015906
11:00+26e8107521 0.1 1015949
14:00+26e697453 0.1 1013902
17:00+25e69757 0.0 1012839
20:00+24e597921 0.0 1013774
12 march, fri
fri1223:00+24e588065 0.0 1014840
02:00+25e588182 0.2 1013857
05:00+25e6981100 0.6 1013697
08:00+24e688190 2.7 1015785
11:00+25e687698 0.4 1016842
14:00+25e577598 0.4 1013860
17:00+25e5778100 0.0 1012713
20:00+25e5879100 0.0 1014784